• In Portugal
  • List of Countries
  • For 7 days
  • Water Temperature
  • Satellite Maps
  • Weather Map
  • Weather Widgets
  • user-avatar
    Login

    Hourly Weather Pamporovo

    Today, 25 September, Tuesday

    Time Temperature Precipitation Wind Pressure Humidity
    00:00 +7°C° 0 mm 3 mps 629 mmHg 66%
    01:00 +5°C° 0 mm 3 mps 629 mmHg 65%
    02:00 +5°C° 0 mm 4 mps 629 mmHg 65%
    03:00 +4°C° 0 mm 4 mps 629 mmHg 63%
    04:00 +4°C° 0 mm 4 mps 629 mmHg 62%
    05:00 +4°C° 0 mm 4 mps 630 mmHg 61%
    06:00 +4°C° 0 mm 4 mps 630 mmHg 58%
    07:00 +4°C° 0 mm 4 mps 631 mmHg 54%
    08:00 +4°C° 0 mm 4 mps 631 mmHg 51%
    09:00 +5°C° 0 mm 4 mps 632 mmHg 43%
    10:00 +7°C° 0 mm 4 mps 632 mmHg 35%
    11:00 +8°C° 0 mm 4 mps 633 mmHg 27%
    12:00 +10°C° 0 mm 4 mps 633 mmHg 25%
    13:00 +10°C° 0 mm 4 mps 633 mmHg 24%
    14:00 +11°C° 0 mm 4 mps 633 mmHg 22%
    15:00 +10°C° 0 mm 4 mps 633 mmHg 24%
    16:00 +8°C° 0 mm 4 mps 633 mmHg 25%
    17:00 +7°C° 0 mm 4 mps 632 mmHg 27%
    18:00 +5°C° 0 mm 4 mps 632 mmHg 31%
    19:00 +3°C° 0 mm 3 mps 632 mmHg 35%
    20:00 +1°C° 0 mm 3 mps 632 mmHg 39%
    21:00 +1°C° 0 mm 3 mps 632 mmHg 41%
    22:00 0°C° 0 mm 3 mps 632 mmHg 42%
    23:00 -1°C° 0 mm 3 mps 632 mmHg 44%

    Tomorrow, 26 September, Wednesday

    Time Temperature Precipitation Wind Pressure Humidity
    00:00 -1°C° 0 mm 3 mps 632 mmHg 46%
    01:00 -1°C° 0 mm 3 mps 632 mmHg 48%
    02:00 -2°C° 0 mm 3 mps 632 mmHg 49%
    03:00 -2°C° 0 mm 3 mps 632 mmHg 51%
    04:00 -2°C° 0 mm 3 mps 632 mmHg 52%
    05:00 -4°C° 0 mm 3 mps 632 mmHg 54%
    06:00 -2°C° 0 mm 3 mps 633 mmHg 52%
    07:00 -2°C° 0 mm 4 mps 633 mmHg 50%
    08:00 -1°C° 0 mm 4 mps 634 mmHg 48%
    09:00 +1°C° 0 mm 4 mps 634 mmHg 43%
    10:00 +2°C° 0 mm 5 mps 635 mmHg 38%
    11:00 +5°C° 0 mm 5 mps 635 mmHg 34%
    12:00 +4°C° 0 mm 6 mps 635 mmHg 33%
    13:00 +5°C° 0 mm 6 mps 635 mmHg 32%
    14:00 +5°C° 0 mm 6 mps 635 mmHg 31%
    15:00 +4°C° 0 mm 6 mps 634 mmHg 33%
    16:00 +4°C° 0 mm 6 mps 634 mmHg 35%
    17:00 +3°C° 0 mm 6 mps 633 mmHg 38%
    18:00 +2°C° 0 mm 5 mps 633 mmHg 42%
    19:00 0°C° 0 mm 5 mps 633 mmHg 47%
    20:00 -2°C° 0 mm 4 mps 633 mmHg 52%
    21:00 -2°C° 0 mm 4 mps 633 mmHg 54%
    22:00 -3°C° 0 mm 4 mps 633 mmHg 56%
    23:00 -3°C° 0 mm 4 mps 633 mmHg 57%

    Day after tomorrow, 27 September, Thursday

    Time Temperature Precipitation Wind Pressure Humidity
    00:00 -4°C° 0 mm 4 mps 632 mmHg 59%
    01:00 -4°C° 0 mm 4 mps 632 mmHg 60%
    02:00 -4°C° 0 mm 4 mps 632 mmHg 61%
    03:00 -5°C° 0 mm 4 mps 631 mmHg 61%
    04:00 -5°C° 0 mm 4 mps 631 mmHg 61%
    05:00 -5°C° 0 mm 4 mps 631 mmHg 61%
    06:00 -5°C° 0 mm 5 mps 631 mmHg 56%
    07:00 -4°C° 0 mm 5 mps 631 mmHg 52%
    08:00 -3°C° 0 mm 6 mps 632 mmHg 47%
    09:00 -1°C° 0 mm 6 mps 632 mmHg 41%
    10:00 +2°C° 0 mm 6 mps 632 mmHg 36%
    11:00 +3°C° 0 mm 7 mps 633 mmHg 30%
    12:00 +4°C° 0 mm 7 mps 632 mmHg 29%
    13:00 +5°C° 0 mm 7 mps 632 mmHg 27%
    14:00 +6°C° 0 mm 7 mps 632 mmHg 25%
    15:00 +6°C° 0 mm 7 mps 631 mmHg 26%
    16:00 +5°C° 0 mm 7 mps 631 mmHg 27%
    17:00 +5°C° 0 mm 6 mps 630 mmHg 28%
    18:00 +3°C° 0 mm 6 mps 630 mmHg 32%
    19:00 +1°C° 0 mm 5 mps 629 mmHg 36%
    20:00 -1°C° 0 mm 4 mps 629 mmHg 40%
    21:00 -1°C° 0 mm 4 mps 629 mmHg 41%
    22:00 -1°C° 0 mm 4 mps 628 mmHg 42%
    23:00 -2°C° 0 mm 4 mps 628 mmHg 43%

    28 September, Friday

    Time Temperature Precipitation Wind Pressure Humidity
    00:00 -2°C° 0 mm 4 mps 628 mmHg 42%
    01:00 -2°C° 0 mm 4 mps 628 mmHg 40%
    02:00 -2°C° 0 mm 4 mps 627 mmHg 39%
    03:00 -2°C° 0 mm 4 mps 627 mmHg 38%
    04:00 -2°C° 0 mm 4 mps 627 mmHg 37%
    05:00 -2°C° 0 mm 4 mps 627 mmHg 36%
    06:00 -1°C° 0 mm 4 mps 627 mmHg 35%
    07:00 0°C° 0 mm 4 mps 628 mmHg 34%
    08:00 +1°C° 0 mm 4 mps 628 mmHg 34%
    09:00 +4°C° 0.1 mm 4 mps 628 mmHg 35%
    10:00 +5°C° 0.1 mm 4 mps 629 mmHg 37%
    11:00 +7°C° 0.1 mm 3 mps 629 mmHg 38%
    12:00 +8°C° 0.3 mm 3 mps 629 mmHg 41%
    13:00 +8°C° 0.3 mm 3 mps 628 mmHg 43%
    14:00 +8°C° 0.3 mm 3 mps 628 mmHg 45%
    15:00 +8°C° 0.3 mm 2 mps 628 mmHg 46%
    16:00 +8°C° 0.3 mm 2 mps 628 mmHg 47%
    17:00 +8°C° 0.3 mm 2 mps 627 mmHg 48%
    18:00 +7°C° 0.1 mm 2 mps 627 mmHg 50%
    19:00 +5°C° 0.1 mm 2 mps 627 mmHg 52%
    20:00 +4°C° 0.1 mm 2 mps 626 mmHg 54%
    21:00 +4°C° 0.1 mm 2 mps 626 mmHg 55%
    22:00 +3°C° 0.1 mm 2 mps 626 mmHg 55%
    23:00 +3°C° 0.1 mm 2 mps 626 mmHg 56%

    29 September, Saturday

    Time Temperature Precipitation Wind Pressure Humidity
    00:00 +3°C° 0 mm 2 mps 626 mmHg 56%
    01:00 +2°C° 0 mm 2 mps 625 mmHg 57%
    02:00 +2°C° 0 mm 2 mps 625 mmHg 57%
    03:00 +2°C° 0 mm 2 mps 625 mmHg 57%
    04:00 +2°C° 0 mm 2 mps 625 mmHg 57%
    05:00 +1°C° 0 mm 2 mps 624 mmHg 58%
    06:00 +3°C° 0 mm 2 mps 625 mmHg 54%
    07:00 +4°C° 0 mm 2 mps 626 mmHg 50%
    08:00 +6°C° 0 mm 2 mps 626 mmHg 47%
    09:00 +8°C° 0 mm 2 mps 627 mmHg 42%
    10:00 +10°C° 0 mm 2 mps 628 mmHg 38%
    11:00 +14°C° 0 mm 2 mps 629 mmHg 34%
    12:00 +14°C° 0 mm 2 mps 628 mmHg 33%
    13:00 +15°C° 0 mm 2 mps 628 mmHg 32%
    14:00 +15°C° 0 mm 2 mps 628 mmHg 31%
    15:00 +15°C° 0 mm 2 mps 628 mmHg 33%
    16:00 +14°C° 0 mm 2 mps 628 mmHg 36%
    17:00 +14°C° 0 mm 2 mps 627 mmHg 39%
    18:00 +10°C° 0 mm 2 mps 627 mmHg 44%
    19:00 +9°C° 0 mm 1 mps 626 mmHg 49%
    20:00 +7°C° 0 mm 1 mps 626 mmHg 55%
    21:00 +7°C° 0 mm 1 mps 626 mmHg 56%
    22:00 +6°C° 0 mm 2 mps 626 mmHg 57%
    23:00 +5°C° 0 mm 2 mps 626 mmHg 58%

    30 September, Sunday

    Time Temperature Precipitation Wind Pressure Humidity
    00:00 +5°C° 0 mm 2 mps 626 mmHg 59%
    01:00 +5°C° 0 mm 2 mps 626 mmHg 61%
    02:00 +5°C° 0 mm 2 mps 626 mmHg 62%
    03:00 +5°C° 0 mm 2 mps 626 mmHg 62%
    04:00 +4°C° 0 mm 2 mps 626 mmHg 63%
    05:00 +4°C° 0 mm 2 mps 627 mmHg 64%
    06:00 +7°C° 0 mm 1 mps 627 mmHg 60%
    07:00 +8°C° 0 mm 1 mps 628 mmHg 56%
    08:00 +9°C° 0 mm 1 mps 629 mmHg 53%
    09:00 +11°C° 0 mm 1 mps 629 mmHg 47%
    10:00 +13°C° 0 mm 1 mps 630 mmHg 42%
    11:00 +15°C° 0 mm 2 mps 631 mmHg 37%
    12:00 +15°C° 0 mm 2 mps 630 mmHg 37%
    13:00 +15°C° 0 mm 2 mps 630 mmHg 38%
    14:00 +15°C° 0 mm 1 mps 630 mmHg 39%
    15:00 +14°C° 0 mm 1 mps 629 mmHg 41%
    16:00 +14°C° 0 mm 1 mps 629 mmHg 44%
    17:00 +13°C° 0 mm 1 mps 629 mmHg 46%
    18:00 +12°C° 0 mm 1 mps 628 mmHg 50%
    19:00 +10°C° 0 mm 1 mps 628 mmHg 54%
    20:00 +9°C° 0 mm 1 mps 628 mmHg 58%
    21:00 +8°C° 0 mm 1 mps 627 mmHg 60%
    22:00 +8°C° 0 mm 1 mps 627 mmHg 61%
    23:00 +8°C° 0 mm 1 mps 627 mmHg 62%
    Show more